Location: Bentleys
(13.1167°N, 59.5000°W)
Time: 03:39:40
(UTC+00:00)

Daily predictions for brighter satellites

Satellite Brightness Start Highest point End
(mag) Time Altitude Azimuth Time Altitude Azimuth Time Altitude Azimuth
CZ-4C R/B 4.3 00:18:51 10° NW 00:26:11 36° WSW 00:30:48 21° SSW
CZ-3B R/B 4.4 00:32:16 10° WNW 00:52:21 59° N 00:52:21 59° N
Centaur D-1AR AC-36 3.8 06:56:13 55° ENE 06:56:13 55° ENE 07:18:08 10° E
Milstar 3 3.7 07:04:18 46° E 07:04:18 46° E 07:08:48 10° ENE
Milstar 3 Cent rocket 4.0 07:07:27 28° ENE 07:07:27 28° ENE 07:09:38 10° ENE
BLOCK DM-SL R/B 4.3 07:05:24 28° SSE 07:05:24 28° SSE 07:19:49 10° ESE
ATLAS 5 CENTAUR R/B 3.3 07:24:31 50° SE 07:24:31 50° SE 07:29:38 10° SSE
ATLAS 2AS CENTAUR R/B 3.0 07:30:54 68° NNE 07:30:54 68° NNE 07:37:45 10° NNE
Cosmos 2237 Rocket 3.8 07:26:17 12° SSE 07:30:52 32° ESE 07:35:49 10° NE
CZ-3 R/B 4.3 06:34:25 10° WNW 07:33:35 65° SW 07:46:23 10° SE
SWIFT 4.3 07:44:52 27° E 07:44:52 27° E 07:46:53 10° E
Cosmos 1980 4.3 07:43:51 25° S 07:46:59 54° ESE 07:52:28 10° NNE
CZ-4B R/B 3.7 08:01:45 10° NNE 08:05:28 46° E 08:09:01 10° S
ATLAS V CENTAUR R/B 3.6 08:07:02 46° SSE 08:07:02 46° SSE 08:12:48 10° ESE
GPS 2-14 Rocket1 4.2 08:14:53 25° NNE 08:14:53 25° NNE 08:17:17 10° NE
Delta 7925 Rocket 4.1 08:15:48 42° NW 08:16:32 45° NNW 08:21:31 10° NE
Cosmos 1184 Rocket 3.9 08:17:36 38° SE 08:17:36 38° SE 08:19:47 10° SSE
SL-16 R/B 4.1 08:16:16 10° SSE 08:21:08 31° ESE 08:26:01 10° NE
H-2A R/B 3.7 08:23:39 17° SSW 08:25:00 19° S 08:31:50 10° SSE
Longmarch 3A Rocket 2.1 08:25:23 36° SSW 08:26:25 48° SSE 08:28:33 10° E
Meteor 1-21 4.2 08:21:51 10° SSW 08:27:17 53° W 08:32:43 10° N
Cosmos 2074 Rocket 3.9 08:21:31 10° S 08:27:48 85° W 08:34:03 10° N
Cosmos 1140 Rocket 3.7 08:24:12 10° S 08:29:24 73° ESE 08:34:34 10° NNE
MSX 4.5 08:28:37 10° NNW 08:33:20 31° WNW 08:33:20 31° WNW
Cosmos 1302 Rocket 4.2 08:31:25 29° NW 08:33:40 46° W 08:38:42 10° S
CZ-2C R/B 2.6 08:29:19 10° N 08:34:16 49° WNW 08:39:09 10° SSW
Okean O Rocket 4.0 08:31:06 10° NE 08:34:40 24° E 08:38:11 10° SSE
H-2A R/B 1.8 08:33:52 25° SSW 08:35:06 36° SSE 08:37:00 10° E
Cosmos 1844 Rocket 2.7 08:30:01 10° NNW 08:35:35 82° ENE 08:41:08 10° SSE
RESURS DK-1 3.8 08:33:21 10° S 08:37:12 39° ESE 08:41:04 10° NE
PSLV R/B 3.7 08:34:24 10° NNE 08:38:04 77° ESE 08:41:45 10° S
Meteor 1-22 Rocket 3.9 08:32:55 10° N 08:38:11 75° W 08:43:27 10° S
Cosmos 614 Rocket 4.1 08:35:45 10° SSW 08:40:45 49° WNW 08:45:48 10° N
NOSS 3-4 (A) 4.1 08:39:42 28° W 08:40:56 30° WNW 08:46:08 10° N
NOSS 3-4 (C) 4.1 08:39:38 28° W 08:41:01 31° WNW 08:46:16 10° N
USA 234 4.2 08:37:17 10° ESE 08:43:26 45° NE 08:49:35 10° NNW
Ariane H10-3 4.3 08:39:37 11° SW 08:44:39 35° SSE 09:11:14 10° E
GPS 2-17 Rocket1 3.4 08:43:55 29° WNW 08:45:35 44° N 08:49:44 10° ENE
MOS 1-B 4.4 08:39:58 10° NNE 08:45:47 84° ESE 08:51:36 10° SSW
Cosmos 1992 Rocket 4.4 08:41:05 10° N 08:46:13 67° ENE 08:51:22 10° SSE
Cosmos 2181 Rocket 4.0 08:43:39 10° NNW 08:49:49 61° W 08:55:54 10° S
Meteor 1-4 Rocket 2.6 08:46:31 10° S 08:50:07 80° E 08:53:40 10° N
Cosmos 1766 4.1 08:52:00 20° NW 08:53:43 28° W 08:57:08 10° SSW
Cosmos 1844 3.7 08:48:16 10° NNW 08:54:01 86° WSW 08:59:44 10° SSE
Cosmos 1455 Rocket 4.2 08:54:32 22° W 08:54:32 22° W 08:57:47 10° SW
SEDSat Delta rocket 3.5 08:51:32 18° NW 08:55:19 78° NNE 09:01:08 10° ESE
Cosmos 1544 Rocket 4.4 08:53:59 10° NW 08:57:34 26° W 09:01:11 10° SSW
Ariane H10+ 4.3 08:46:14 15° WSW 08:57:50 34° SSW 09:03:22 10° SE
Centaur AC-119 3.9 08:57:04 19° W 09:00:15 67° SSW 09:17:07 10° ESE
Cosmos 676 Rocket 4.0 08:56:14 10° SSW 09:01:30 65° WNW 09:06:44 10° N
Celestis-02/Orion 38 4.5 08:57:09 10° SSE 09:02:13 80° WSW 09:07:20 10° NNW
BREEZE-M DEB (TANK) 2.4 09:02:25 22° WNW 09:03:34 39° SW 09:06:14 10° SSE
Cosmos 1892 Rocket 3.9 09:00:26 10° S 09:04:52 74° E 09:09:18 10° N
Stardust Del rocket 3.9 09:01:03 14° WNW 09:05:22 46° N 09:08:18 10° E
ATLAS 5 CENTAUR R/B 4.3 09:06:09 12° WSW 09:07:03 12° WSW 09:09:26 10° SW
Cosmos 921 Rocket 4.1 09:04:12 10° N 09:08:14 45° ENE 09:12:14 10° SSE
ALOS 2.6 09:04:47 10° NNE 09:09:26 72° ESE 09:14:04 10° S
BREEZE-M DEB (TANK) 4.1 09:09:51 14° W 09:11:52 32° NW 09:16:38 10° NNE
Meteor 1-31 Rocket 4.4 09:10:35 10° NW 09:12:30 14° WNW 09:14:26 10° WSW
Cosmos 1707 3.7 09:10:29 10° SW 09:13:45 26° W 09:17:02 10° NNW
Cosmos 2237 Rocket 3.5 09:10:52 10° WSW 09:14:44 19° WNW 09:18:37 10° NNW
ARIANE 5 R/B 4.5 08:43:26 14° W 09:15:08 57° S 09:20:03 10° ESE
METEOR-M 4.1 09:12:58 10° N 09:18:19 85° WNW 09:23:39 10° SSW
Okean 1-7 Rocket 3.5 09:16:37 10° SSW 09:20:57 64° W 09:25:19 10° N
Cosmos 1470 2.8 09:18:42 10° NNW 09:22:30 57° W 09:26:18 10° S
PAYLOAD B 4.3 09:18:00 10° N 09:23:23 54° WNW 09:28:44 10° SSW
SWIFT 3.0 09:20:40 10° W 09:24:38 42° SSW 09:28:36 10° SE
Cosmos 389 Rocket 4.2 09:24:32 10° WSW 09:26:18 13° W 09:28:03 10° NW
Cosmos 2154 Rocket 4.3 09:20:39 10° SSW 09:26:28 42° W 09:32:15 10° NNW
Cosmos 962 Rocket 4.5 09:21:17 10° S 09:27:27 75° W 09:33:42 10° N
In-Cosmos 22 4.2 09:26:41 10° SSW 09:31:47 51° W 09:36:55 10° N
